Regional Weather Roundup
Issued by NWS

Home | Current Version | Previous Version | Graphics & Text | Print | Product List | Glossary On
Versions: 1 2 3 4 5 6 7 8 9 10 11 12 13 14 15 16 17 18 19 20 21 22 23 24 25 26 27 28
000
ASUS45 KTFX 250510
RWRMT
MONTANA REGIONAL WEATHER ROUNDUP
NATIONAL WEATHER SERVICE GREAT FALLS MT
1100 PM MDT WED AUG 24 2016

NOTE: "FAIR" INDICATES FEW OR NO CLOUDS BELOW 12000 FEET WITH NO
SIGNIFICANT WEATHER AND/OR OBSTRUCTIONS TO VISIBILITY.

MTZ001>007-043-250600-
WEST OF THE DIVIDE

CITY           SKY/WX    TMP DP  RH WIND       PRES   REMARKS
KALISPELL      CLEAR     56  36  47 NE13      30.27R
MISSOULA       CLEAR     61  41  47 E7        30.29R
BUTTE          CLEAR     51  31  46 NW3       30.38R
MULLAN PASS    CLEAR     52  34  50 E7        30.35F
DEER LODGE       N/A     46  34  61 W5        30.39S
EUREKA           N/A     59  34  38 CALM      30.27
HAMILTON         N/A     55  43  62 CALM      30.27S
LIBBY            N/A     57  39  51 CALM      30.25S
PLAINS           N/A     61  47  59 CALM      30.23S
$$

MTZ008-052>055-250600-
SOUTHWEST MONTANA

CITY           SKY/WX    TMP DP  RH WIND       PRES   REMARKS
BOZEMAN        PTCLDY    51  38  60 MISG      30.35S
DILLON         PTCLDY    49  32  52 NE8       30.33R
W YELLOWSTONE  CLOUDY    46  32  57 N7        30.37S
ENNIS          CLEAR     50  32  50 N14       30.38S
THREE FORKS      N/A     48  16  28 CALM      30.31S
TWIN BRIDGES     N/A     53  30  41 N14       30.27S
$$

MTZ009-010-012-014-046-048-049-054-250600-
EAST SLOPES AND CENTRAL MONTANA

CITY           SKY/WX    TMP DP  RH WIND       PRES   REMARKS
CUT BANK       CLEAR     49  40  71 S5        30.34S
GREAT FALLS    CLOUDY    53  40  61 SE5       30.34S
MALMSTROM AFB  CLOUDY    53  44  71 MISG      30.34S
HELENA         CLEAR     55  37  50 SW6       30.34S
CHOTEAU          N/A     50  41  71 S6        30.36F
CONRAD           N/A     48  42  80 NE2       30.33F
$$

MTZ011-013-016-021-045-047-050-051-250600-
NORTH CENTRAL MONTANA

CITY           SKY/WX    TMP DP  RH WIND       PRES   REMARKS
HAVRE          PTCLDY    48  43  82 VRB3      30.29F
LEWISTOWN      CLOUDY    51  43  74 SW6       30.35F
N BAR RANCH    CLOUDY    50  39  66 W3        30.37S
CHINOOK          N/A     55  46  71 SW3       30.28F
$$

MTZ017>020-022>027-061-062-250600-
NORTHEAST MONTANA

CITY           SKY/WX    TMP DP  RH WIND       PRES   REMARKS
JORDAN           N/A     54  44  69 N8        30.28S
SIDNEY         CLOUDY    55  47  74 NW14      30.19R
WOLF POINT     CLOUDY    57  46  66 W7        30.22F
POPLAR           N/A     55  46  71 W5        30.22S
SCOBEY           N/A     53  46  77 W7        30.18S
$$

MTZ028>42-056>058-250600-
SOUTHCENTRAL AND SOUTHEAST MONTANA

CITY           SKY/WX    TMP DP  RH WIND       PRES   REMARKS
BAKER          CLOUDY    55  45  68 NW15      30.24S
BILLINGS       CLOUDY    55  39  54 N7        30.34S
LIVINGSTON     CLOUDY    51  39  63 SE16      30.36S
MILES CITY     CLOUDY    58  41  53 NW6       30.26S
EKALAKA          N/A     50  40  68 NW5       30.22S
FORSYTH          N/A     57  43  58 NW5       30.28S
LAUREL           N/A     55  38  52 CALM      30.30S
ROUNDUP          N/A     55  40  57 NW7       30.22F
$$

REGIONAL REPORTS...DAKOTAS

CITY           SKY/WX    TMP DP  RH WIND       PRES   REMARKS
MINOT          CLOUDY    56  53  90 W18G25    30.02S
DICKINSON      CLEAR     51  47  86 W17       30.15R
CROSBY         CLOUDY    54  50  87 NW12      30.13S
WATFORD CITY   CLOUDY    55  46  71 NW13      30.15S
BISMARCK       MOCLDY    57  50  77 W14       30.08S
GRAND FORKS    CLEAR     59  52  77 SW9       29.89F
FARGO          CLEAR     61  51  70 W12       29.95F
BUFFALO SD       N/A     50  43  77 W8        30.17S
RAPID CITY     CLOUDY    60  44  55 N16       30.22S
$$

REGIONAL REPORTS...WYOMING/IDAHO/WASHINGTON

CITY           SKY/WX    TMP DP  RH WIND       PRES   REMARKS
GILLETTE       CLOUDY    56  41  57 N10       30.30R
SHERIDAN       CLOUDY    57  40  52 NW13      30.33R
BUFFALO WY     CLOUDY    54  40  59 N15G26    30.35R
CODY           CLOUDY    52  43  71 N6        30.37S
YELLOWSTONE LA   N/A     33  33 100 NW3       30.42S
IDAHO FALLS    CLEAR     60  33  36 NE14      30.21R
SALMON         CLEAR     64  34  32 SE16G24   30.22S
BOISE          CLEAR     66  31  27 W3        30.05F
SPOKANE        CLEAR     70  37  29 E3        30.20R
$$

REGIONAL REPORTS...ALBERTA

CITY           SKY/WX    TMP DP  RH WIND       PRES   REMARKS
EDMONTON       MOCLDY    55  54  94 SE5       30.22F
LETHBRIDGE     CLEAR     45  41  87 S15       30.30S
MEDICINE HAT   MOCLDY    52  48  87 SW8       30.26S
WATERTON GATE    N/A     41  37  87 SW2         N/A
CARDSTON         N/A     48  36  61 SW7         N/A
MILK RIVER       N/A     45  41  87 NW1         N/A
ONEFOUR          N/A     50  45  81 NW5         N/A
$$

REGIONAL REPORTS...SASKATCHEWAN

CITY           SKY/WX    TMP DP  RH WIND       PRES   REMARKS
SWIFT CURRENT  CLEAR     50  46  87 W10       30.21F
REGINA         MOCLDY    52  48  87 W7        30.16S
SASKATOON      CLEAR     48  48 100 W7        30.15S
CYPRESS HILLS    N/A     45  39  81 W3          N/A
VAL MARIE        N/A     46  43  87 W3          N/A
ROCKGLEN         N/A     52  48  87 NW7         N/A
$$




USA.gov is the U.S. government's official web portal to all federal, state and local government web resources and services.